Regional Weather Roundup
Issued by NWS

Home | Current Version | Previous Version | Text Only | Print | Product List | Glossary On
Versions: 1 2 3 4 5 6 7 8 9 10 11 12 13 14 15 16 17 18 19 20 21 22 23 24 25 26 27 28 29 30 31 32 33 34 35 36 37 38 39 40 41 42 43 44 45 46 47 48 49 50
000
ASUS43 KBIS 231010
RWRND

NORTH DAKOTA REGIONAL WEATHER ROUNDUP
NATIONAL WEATHER SERVICE BISMARCK ND
500 AM CDT THU OCT 23 2014

NOTE: "FAIR" INDICATES FEW OR NO CLOUDS BELOW 12,000 FEET WITH NO
SIGNIFICANT WEATHER AND/OR OBSTRUCTIONS TO VISIBILITY.


NDZ001>003-009>011-017-231100-
NORTHWEST NORTH DAKOTA

CITY           SKY/WX    TMP DP  RH WIND       PRES   REMARKS
WILLISTON      CLEAR     36  31  82 S3        29.85F
MINOT          CLEAR     46  34  62 SW16      29.84R
MINOT AFB      CLEAR     43  35  72 SW13      29.83R
$$

NDZ018>021-031>035-040>046-231100-
SOUTHWEST NORTH DAKOTA

CITY           SKY/WX    TMP DP  RH WIND       PRES   REMARKS
BISMARCK       CLEAR     35  32  88 CALM      29.92S
DICKINSON      CLEAR     43  27  53 S5        29.88F
GARRISON         N/A     41  37  86 W5        29.87S
HETTINGER ARPT CLEAR     29  23  78 CALM      29.94F
$$

NDZ004>008-012>016-024-026-027-054-231100-
NORTHEAST NORTH DAKOTA

CITY           SKY/WX    TMP DP  RH WIND       PRES   REMARKS
GRAND FORKS    CLOUDY    51  46  83 SW7       29.83S
GRND FRKS AFB  PTCLDY    49  49  98 SW8       29.83S
DEVILS LAKE    CLEAR     48  37  66 SW10      29.82S
$$

NDZ022-023-025-028>030-036>039-047>053-231100-
SOUTHEAST NORTH DAKOTA

CITY           SKY/WX    TMP DP  RH WIND       PRES   REMARKS
FARGO          CLEAR     45  42  89 S8        29.89S
JAMESTOWN      CLEAR     42  36  79 W7        29.89S
$$




USA.gov is the U.S. government's official web portal to all federal, state and local government web resources and services.